Home   Weather   Ensenada   Past weeks

Flag for Mexico Past Weather in Ensenada, Baja California, Mexico — Yesterday and Last 2 Weeks

Now
66 °F

Sunny.


Feels Like: 66 °F
Forecast: 57 / 82 °F
Wind: 5 mph from Southeast

Location: Tijuana International Airport

Current Time: Apr 30, 2017 at 8:26:03 am

Latest Report: Apr 30, 2017 at 7:46 am


Visibility: 10 mi

Pressure: 30.05 "Hg

Humidity: 15%

Dew Point: 18 °F

Location of EnsenadaLocation

Past Weather in Ensenada — Graph

°F

Ensenada Temperature Yesterday

Maximum temperature yesterday: 81 °F (at 11:46 am)
Minimum temperature yesterday: 55 °F (at 2:40 am)
Average temperature yesterday: 69 °F

High & Low Weather Summary for the Past Weeks

 TemperatureHumidityPressure
High84 °F (Apr 22, 3:48 pm)94% (Apr 20, 3:00 am)30.30 "Hg (Apr 20, 3:00 am)
Low50 °F (Apr 15, 6:44 am)7% (Apr 29, 9:49 am)29.58 "Hg (Apr 26, 7:49 am)
Average64 °F60%29.98 "Hg
* Reported Apr 15 6:44 am — Apr 30 6:45 am, Ensenada, Weather by CustomWeather, © 2017

Note: Actual official high and low records may vary slightly from our data, if they occured in-between our weather recording intervals... More about our weather records

Advertising

Ensenada Weather History for the Previous 24 Hours

Scroll right to see more
 ConditionsComfort  
Time TempWeatherWind HumidityBarometerVisibility
6:45 am
Sun, Apr 30
59 °FSunny.5 mph23%30.07 "Hg10 mi
6:25 am57 °FSunny.5 mph25%30.07 "Hg10 mi
1:52 am61 °FClear.5 mph25%30.02 "Hg8 mi
12:48 am61 °FClear.No wind25%30.09 "Hg8 mi
11:41 pm
Sat, Apr 29
64 °FClear.3 mph21%30.08 "Hg7 mi
10:44 pm66 °FClear.No wind19%30.05 "Hg6 mi
9:44 pm68 °FClear.8 mph17%30.08 "Hg6 mi
8:47 pm68 °FClear.5 mph16%30.07 "Hg6 mi
7:47 pm66 °FClear.5 mph21%30.03 "Hg7 mi
6:44 pm73 °FSunny.10 mph15%30.02 "Hg9 mi
5:41 pm75 °FSunny.13 mph9%30.00 "Hg8 mi
4:47 pm77 °FSunny.14 mph39%30.01 "Hg8 mi
3:50 pm77 °FSunny.14 mph8%29.99 "Hg8 mi
2:46 pm79 °FSunny.9 mph9%29.99 "Hg8 mi
1:44 pm79 °FSunny.14 mph8%30.00 "Hg8 mi
12:48 pm79 °FSunny.10 mph9%30.00 "Hg8 mi
11:46 am81 °FSunny.7 mph9%30.00 "Hg8 mi
10:49 am79 °FSunny.No wind7%29.98 "Hg8 mi
9:49 am77 °FSunny.3 mph7%29.99 "Hg8 mi
8:42 am73 °FSunny.7 mph8%29.98 "Hg9 mi
Weather by CustomWeather, © 2017

See weather overviewHow to use our weather pages